"Pseudo-MPEC" for P112hFx

Created 2020 Jul 2 23:07:08 UT using Find_Orb

Click here for an explanation of pseudo-MPECs

 
 Astrometry: 
     P112hFx  C2020 06 290=EDBE7CSwTMQg:BFZ?^cr:9Tn;m6%d5#-Z:*gq(uD^L1xH1YgovF51
     P112hFx  C2020 06 2990jHX_;He7BgK]q8Ty3R79=6;NI]AstrometryDyv.CDf]`hH@%DF51
     P112hFx  C2020 06 29-P'$h5XUgoH*_c3bFWbwe_A+B[sD!Rib(JAJ`yY'H'f.DypEV2BuF51
     P112hFx  C2020 07 02LcnyS9_\=g,^kl]Jt_+`mO_Noredacted;*pjV4JK3Wg*]`hNS%RF51
     P112hFx  C2020 07 02'e]A2fZ*;)i1sEEwJ2TBJv*-]M[jRgKqJl*jh+/Wclickq\WpY')F51
     P112hFx  C2020 07 02gJ)7gD]:YMmhereFxJDfornJkT3HKoYuNa$;eaRe)P#Cc*jc)cg'F51
     P112hFx  C2020 07 02e\,V6?Ya5explanation86cSoYrVe^9p;7YE[C(D000Ff\5ywJl4F51

Station data:
(F51) Pan-STARRS 1, Haleakala  (N20.707235 W156.255910)  US/Hawaii.
   Observers N. Primak, A. Schultz, S. Watters, J. Thiel, T. Goggia. Measurer
   PS1 Science Consortium. 1.8-m Ritchey-Chrétien + CCD.

Orbital elements:  P112hFx
   Perihelion 2020 Nov 1.559437 +/- 59.3 TT = 13:25:35 (JD 2459155.059437)
Epoch 2020 Jul  2.0 TT = JDT 2459032.5   Earth MOID: 0.2455   Ma: 0.0434
M 326.13313802 +/- 24               (J2000 ecliptic)          AutoNEOCP
n   0.27633010 +/- 0.225            Peri.  129.68787 +/- 70
a   2.33444644 +/- 1.27             Node   250.77659 +/- 26
e   0.4676680 +/- 0.239             Incl.    1.20858 +/- 0.52
P   3.57                   H 20.1   G  0.15   U 11.7  SR
q 1.24270034 +/- 0.499    Q 3.42619254 +/- 40.2
From 7 observations 2020 June 29-July 2; mean residual 0".07
Residuals in arcseconds: 
200629 F51  .03+  .09-    200702 F51  .08+  .03+    200702 F51  .10-  .00     
200629 F51  .11-  .02+    200702 F51  .12+  .02+    
200629 F51  .08+  .07+    200702 F51  .09-  .05-    

Ephemerides (geocentric):
Date (UTC) HH   RA              Dec         delta   r     elong  mag " sig PA
---- -- -- --  -------------   -----------  ------ ------ -----  --- ---- ---
2020 07 02 23  21 24 06.789   -13 15 23.98  .80114 1.7200 142.0 21.8 5.50 170
2020 07 03 00  21 24 07.664   -13 15 14.56  .80068 1.7198 142.0 21.8 6.25 168
2020 07 03 01  21 24 08.536   -13 15 05.15  .80022 1.7196 142.0 21.8 7.03 166
2020 07 03 02  21 24 09.406   -13 14 55.74  .79976 1.7193 142.1 21.8 7.82 165
2020 07 03 03  21 24 10.272   -13 14 46.35  .79931 1.7191 142.1 21.8 8.64 164
2020 07 03 04  21 24 11.135   -13 14 36.97  .79885 1.7188 142.1 21.8 9.48 163
2020 07 03 05  21 24 11.996   -13 14 27.60  .79839 1.7186 142.2 21.8 10.3 163
2020 07 03 06  21 24 12.853   -13 14 18.24  .79794 1.7183 142.2 21.8 11.2 162
2020 07 03 07  21 24 13.707   -13 14 08.89  .79748 1.7181 142.2 21.8 12.1 161
2020 07 03 08  21 24 14.559   -13 13 59.56  .79702 1.7178 142.3 21.8 13.0 161
2020 07 03 09  21 24 15.407   -13 13 50.23  .79657 1.7176 142.3 21.8 13.9 161
2020 07 03 10  21 24 16.252   -13 13 40.91  .79611 1.7173 142.4 21.8 14.9 160
2020 07 03 11  21 24 17.095   -13 13 31.61  .79566 1.7171 142.4 21.8 15.9 160
2020 07 03 12  21 24 17.934   -13 13 22.31  .79520 1.7168 142.4 21.8 16.8 160
2020 07 03 13  21 24 18.770   -13 13 13.03  .79475 1.7166 142.5 21.8 17.8 159
2020 07 03 14  21 24 19.604   -13 13 03.76  .79429 1.7164 142.5 21.8 18.8 159
2020 07 03 15  21 24 20.434   -13 12 54.49  .79384 1.7161 142.5 21.8 19.9 159
2020 07 03 16  21 24 21.261   -13 12 45.24  .79338 1.7159 142.6 21.8 20.9 159
2020 07 03 17  21 24 22.085   -13 12 36.00  .79293 1.7156 142.6 21.8 22.0 158
2020 07 03 18  21 24 22.907   -13 12 26.77  .79248 1.7154 142.6 21.8 23.1 158
2020 07 03 19  21 24 23.725   -13 12 17.55  .79202 1.7151 142.7 21.8 24.2 158
2020 07 03 20  21 24 24.540   -13 12 08.35  .79157 1.7149 142.7 21.8 25.3 158
2020 07 03 21  21 24 25.352   -13 11 59.15  .79112 1.7146 142.7 21.8 26.4 158
2020 07 03 22  21 24 26.161   -13 11 49.96  .79066 1.7144 142.8 21.8 27.6 158
2020 07 03 23  21 24 26.968   -13 11 40.79  .79021 1.7141 142.8 21.8 28.8 158
2020 07 04 00  21 24 27.771   -13 11 31.63  .78976 1.7139 142.9 21.8 30.0 157
2020 07 04 01  21 24 28.571   -13 11 22.47  .78931 1.7137 142.9 21.8 31.2 157
2020 07 04 02  21 24 29.368   -13 11 13.33  .78885 1.7134 142.9 21.8 32.4 157
2020 07 04 03  21 24 30.162   -13 11 04.20  .78840 1.7132 143.0 21.8 33.6 157
2020 07 04 04  21 24 30.953   -13 10 55.08  .78795 1.7129 143.0 21.8 34.9 157
2020 07 04 05  21 24 31.740   -13 10 45.97  .78750 1.7127 143.0 21.8 36.1 157
2020 07 04 06  21 24 32.525   -13 10 36.87  .78705 1.7124 143.1 21.8 37.4 157
2020 07 04 07  21 24 33.307   -13 10 27.79  .78660 1.7122 143.1 21.8 38.7 157
2020 07 04 08  21 24 34.086   -13 10 18.71  .78615 1.7119 143.1 21.8 40.1 157
2020 07 04 09  21 24 34.862   -13 10 09.65  .78570 1.7117 143.2 21.8 41.4 157
2020 07 04 10  21 24 35.634   -13 10 00.59  .78525 1.7114 143.2 21.8 42.7 157
2020 07 04 11  21 24 36.404   -13 09 51.55  .78480 1.7112 143.2 21.8 44.1 157
2020 07 04 12  21 24 37.170   -13 09 42.52  .78435 1.7109 143.3 21.8 45.5 156
2020 07 04 13  21 24 37.934   -13 09 33.50  .78390 1.7107 143.3 21.8 46.9 156
2020 07 04 14  21 24 38.694   -13 09 24.49  .78345 1.7105 143.4 21.8 48.3 156
2020 07 04 15  21 24 39.452   -13 09 15.49  .78300 1.7102 143.4 21.8 49.8 156
2020 07 04 16  21 24 40.206   -13 09 06.50  .78255 1.7100 143.4 21.8 51.2 156
2020 07 04 17  21 24 40.957   -13 08 57.53  .78210 1.7097 143.5 21.8 52.7 156
2020 07 04 18  21 24 41.705   -13 08 48.56  .78166 1.7095 143.5 21.8 54.2 156
2020 07 04 19  21 24 42.450   -13 08 39.61  .78121 1.7092 143.5 21.8 55.7 156
2020 07 04 20  21 24 43.192   -13 08 30.67  .78076 1.7090 143.6 21.8 57.2 156
2020 07 04 21  21 24 43.931   -13 08 21.74  .78031 1.7087 143.6 21.7 58.7 156
2020 07 04 22  21 24 44.667   -13 08 12.82  .77987 1.7085 143.6 21.7 60.3 156